Location: Shoshoni
(43.2355°N, 108.1106°W)
Time: 17:14:59
(UTC-07:00)

OTV 5 (USA 277) - Visible Passes

Search period start: 23 February 2018 00:00
Search period end: 05 March 2018 00:00
Orbit: 404 x 417 km, 43.0° (Epoch: 07 September)

Date Brightness Start Highest point End Pass type
(mag) Time Alt. Az. Time Alt. Az. Time Alt. Az.
23 Feb ? 05:36:06 26° SW 05:37:32 46° SSE 05:40:43 10° E visible
24 Feb ? 04:47:30 28° ESE 04:47:30 28° ESE 04:49:35 10° E visible
24 Feb ? 06:20:25 10° W 06:23:41 84° S 06:27:00 10° E visible
25 Feb ? 05:31:35 39° WSW 05:32:39 74° S 05:35:56 10° E visible
26 Feb ? 04:42:52 32° E 04:42:52 32° E 04:44:51 10° E visible
26 Feb ? 06:15:37 10° W 06:18:53 88° S 06:22:10 10° E visible
27 Feb ? 05:26:53 44° W 05:27:48 88° S 05:31:06 10° E visible
28 Feb ? 04:38:08 32° E 04:38:08 32° E 04:40:02 10° E visible
28 Feb ? 06:10:53 11° W 06:14:02 70° SSW 06:17:19 10° ESE visible
01 Mar ? 05:22:09 46° W 05:23:00 81° S 05:26:16 10° E visible
02 Mar ? 04:33:26 30° E 04:33:26 30° E 04:35:13 10° E visible
02 Mar ? 06:06:11 11° W 06:09:08 42° SSW 06:12:15 10° SE visible
03 Mar ? 05:17:31 46° WSW 05:18:07 56° SSW 05:21:21 10° ESE visible
04 Mar ? 04:28:55 24° ESE 04:28:55 24° ESE 04:30:21 10° ESE visible
04 Mar ? 06:01:40 11° W 06:04:06 22° SSW 06:06:44 10° SSE visible
